Location: Praha
(50.0830°N, 14.4670°E)
Time: 05:18:32
(UTC+02:00)

ISS - Pass Details

Date: 01 April 2020
Orbit: 417 x 423 km, 51.6° (Epoch: 29 March)

Event Time Altitude Azimuth Distance (km) Brightness Sun altitude
Rises 20:57:56 0° 287° (WNW) 2,362 2.0 -13.6°
Reaches altitude 10° 21:00:05 10° 282° (WNW) 1,497 0.4 -13.9°
Maximum altitude 21:03:19 46° 208° (SSW) 571 -3.1 -14.3°
Enters shadow 21:04:47 26° 149° (SSE) 852 -2.7 -14.5°
